Find Qianfan Jigui 02-01

NORAD ID: 61552 Int'l Des: 2024-185 Owner: YUANX Country: CN Constellation: qianfan operational
LEOCIRCULARPOLAR

リアルタイム位置

3D地球を読み込み中...

Qianfan Jigui 02-01について

説明を読み込み中...

次回通過

Passes for default location (London). Set your location on the main map for personalized predictions.

高度履歴

Loading altitude history...

軌道要素

1 61552U 24185A 26106.24245813 .00000301 00000-0 14969-3 0 9999
2 61552 88.9817 63.6464 0004419 265.7136 94.3546 14.14428815 87261
Epoch: Apr 16, 2026 • Age: 13 hours

現在のステータス

高度 868.8 km
速度 7.42 km/s
衛星直下点 -76.96°S, 119.3°E
打ち上げ日 Oct 15, 2024
運用期間 1.5 years
タイプ internet

技術仕様

分類 Payload
質量 267.00 kg
乾燥質量 267.00 kg
総質量 267.00 kg
長さ 0.30 m
直径 3.00 m
スパン 10.00 m
形状 Box+pan
製造者 GESIH/SECM
バスタイプ Qianfan
フェーズステータス In Orbit
所有者/国 YUANX/CN

Most Searched